Weather History for KBAD - November, 2012

Change the Weather History Date:

Wednesday, November 7, 2012

  Actual Average Record
Temperature  
Mean Temperature 56 °F -  
Max Temperature 71 °F 65 °F 84 °F (2005)
Min Temperature 41 °F 46 °F 33 °F (2010)
Degree Days  
Heating Degree Days 9    
Growing Degree Days 6 (Base 50)    
Moisture  
Dew Point 38 °F    
Average Humidity 63    
Maximum Humidity 98    
Minimum Humidity 21    
Precipitation  
Precipitation 0.00 in - - ()
Sea Level Pressure  
Sea Level Pressure 30.12 in    
Wind  
Wind Speed 3 mph (North)    
Max Wind Speed 14 mph    
Max Gust Speed 20 mph    
Visibility 10 miles    
Events      
Averages and records for this station are not official NWS values.
T = Trace of Precipitation, MM = Missing Value Source: NWS Daily Summary

Daily Weather History Graph

Daily Weather History Graph

Search for Another Location

Airport or City:

Trip Planner

Search our weather history database for the weather conditions in past years. The results will help you decide how hot, cold, wet, or windy it might be!

Date:

Astronomy

Nov. 07, 2012 Rise Set
Actual Time 6:37 AM CST 5:18 PM CST
Civil Twilight 6:11 AM CST 5:44 PM CST
Nautical Twilight 5:42 AM CST 6:13 PM CST
Astronomical Twilight 5:13 AM CST 6:42 PM CST
Moon No Moon Rise 1:07 PM CST (11/7)
Length of Visible Light 11h 32m
Length of Day
10h 41m
Last Quarter, 43% of the Moon is Illuminated
Nov 7
Last Quarter
Nov 13
New
Nov 20
First Quarter
Nov 28
Full
Dec 6
Last Quarter

Hourly Weather History & Observations

Time (CST) Temp. Windchill Dew Point Humidity Pressure Visibility Wind Dir Wind Speed Gust Speed Precip Events Conditions
12:55 AM 45.9 °F - 44.2 °F 94% 30.10 in 4.0 mi Calm Calm - N/A   Clear
1:55 AM 43.5 °F - 41.4 °F 92% 30.10 in 10.0 mi Calm Calm - N/A   Clear
2:55 AM 44.4 °F - 43.5 °F 97% 30.11 in 10.0 mi Calm Calm - N/A   Clear
3:55 AM 43.3 °F - 41.9 °F 95% 30.11 in 10.0 mi Calm Calm - N/A   Clear
4:55 AM 41.9 °F - 40.5 °F 95% 30.12 in 10.0 mi Calm Calm - N/A   Clear
5:55 AM 41.9 °F - 40.8 °F 96% 30.13 in 10.0 mi Calm Calm - N/A   Clear
6:55 AM 41.5 °F 39.6 °F 41.0 °F 98% 30.14 in 9.0 mi NNE 3.5 mph - N/A   Clear
7:55 AM 48.2 °F - 44.1 °F 86% 30.16 in 10.0 mi NNW 4.6 mph - N/A   Clear
8:55 AM 54.9 °F - 43.7 °F 66% 30.17 in 10.0 mi North 4.6 mph - N/A   Clear
9:55 AM 62.1 °F - 37.8 °F 41% 30.16 in 10.0 mi North 6.9 mph - N/A   Clear
10:55 AM 66.9 °F - 32.0 °F 27% 30.15 in 10.0 mi North 12.7 mph - N/A   Clear
11:55 AM 68.5 °F - 29.3 °F 23% 30.13 in 10.0 mi North 13.8 mph 19.6 mph N/A   Clear
12:55 PM 70.5 °F - 29.1 °F 21% 30.10 in 10.0 mi North 13.8 mph - N/A   Clear
1:55 PM 71.6 °F - 30.2 °F 22% 30.08 in 10.0 mi North 11.5 mph 18.4 mph N/A   Clear
2:55 PM 71.4 °F - 29.3 °F 21% 30.08 in 10.0 mi North 11.5 mph - N/A   Clear
3:55 PM 71.1 °F - 31.1 °F 23% 30.09 in 10.0 mi NW 12.7 mph - N/A   Clear
4:55 PM 67.1 °F - 32.9 °F 28% 30.09 in 10.0 mi North 6.9 mph - N/A   Clear
5:55 PM 59.2 °F - 37.9 °F 45% 30.10 in 10.0 mi Calm Calm - N/A   Clear
6:55 PM 55.2 °F - 39.6 °F 56% 30.11 in 10.0 mi Calm Calm - N/A   Clear
7:55 PM 50.7 °F - 41.9 °F 72% 30.12 in 10.0 mi Calm Calm - N/A   Clear
8:55 PM 48.7 °F - 41.2 °F 75% 30.14 in 10.0 mi Calm Calm - N/A   Clear
9:55 PM 46.9 °F - 41.4 °F 81% 30.14 in 10.0 mi Calm Calm - N/A   Clear
10:55 PM 45.5 °F - 40.8 °F 84% 30.15 in 10.0 mi Calm Calm - N/A   Clear
11:55 PM 46.2 °F - 38.8 °F 75% 30.16 in 10.0 mi Calm Calm - N/A   Clear